This is the latest recevied weather packets stored in our database for station/object WD0REW. If no packets are shown the sender has not sent any weather packets the latest 10 day(s).
| Time | Temp. | Humidity | Pressure | Rain* | Wind** | Luminosity | Snow |
|---|---|---|---|---|---|---|---|
| 1777146909 | 26.11° C | 49% | 1010.5 hPa | 0 mm | - | 338 W/m² | - |
| 1777146605 | 26.11° C | 49% | 1011 hPa | 0 mm | - | 680 W/m² | - |
| 1777146300 | 26.11° C | 49% | 1010.9 hPa | 0 mm | - | 739 W/m² | - |
| 1777145996 | 25.56° C | 50% | 1010.8 hPa | 0 mm | - | 764 W/m² | - |
| 1777145694 | 25° C | 50% | 1010.9 hPa | 0 mm | - | 732 W/m² | - |
| 1777145389 | 25.56° C | 50% | 1010.7 hPa | 0 mm | - | 390 W/m² | - |
| 1777145084 | 26.11° C | 47% | 1011 hPa | 0 mm | - | 804 W/m² | - |
| 1777144779 | 25.56° C | 49% | 1010.8 hPa | 0 mm | - | 775 W/m² | - |
| 1777144477 | 25.56° C | 50% | 1011 hPa | 0 mm | - | 787 W/m² | - |
| 1777144175 | 25.56° C | 50% | 1011 hPa | 0 mm | - | 780 W/m² | - |
| 1777143871 | 25.56° C | 50% | 1011.1 hPa | 0 mm | - | 817 W/m² | - |
| 1777143567 | 25.56° C | 50% | 1011 hPa | 0 mm | - | 839 W/m² | - |
| 1777143262 | 25.56° C | 51% | 1011.2 hPa | 0 mm | - | 186 W/m² | - |
| 1777142959 | 25.56° C | 51% | 1011 hPa | 0 mm | - | 834 W/m² | - |
| 1777142654 | 25.56° C | 54% | 1011.1 hPa | 0 mm | - | 846 W/m² | - |
| 1777142352 | 25.56° C | 51% | 1011.2 hPa | 0 mm | - | 870 W/m² | - |
| 1777142052 | 25° C | 53% | 1011.4 hPa | 0 mm | - | 200 W/m² | - |
| 1777141748 | 24.44° C | 53% | 1011.5 hPa | 0 mm | - | 862 W/m² | - |
| 1777141446 | 24.44° C | 54% | 1011.4 hPa | 0 mm | - | 519 W/m² | - |
| 1777141143 | 25° C | 51% | 1011.1 hPa | 0 mm | - | 211 W/m² | - |
| 1777140840 | 25.56° C | 51% | 1011.4 hPa | 0 mm | - | 834 W/m² | - |
| 1777140536 | 25° C | 55% | 1011.2 hPa | 0 mm | - | 885 W/m² | - |
| 1777140234 | 25° C | 53% | 1011.4 hPa | 0 mm | - | 814 W/m² | - |
| 1777139931 | 24.44° C | 57% | 1011.6 hPa | 0 mm | - | 840 W/m² | - |
| 1777139628 | 24.44° C | 54% | 1011.4 hPa | 0 mm | - | 858 W/m² | - |
* Rain latest hour (hover to see other rain measurements)
** Current wind speed in m/s (hover to see current wind gust speed)